Regional Weather Roundup
Issued by NWS

Home | Current Version | Previous Version | Graphics & Text | Print | Product List | Glossary On
Versions: 1 2 3 4 5 6 7 8 9 10 11 12 13 14 15 16 17 18 19 20 21 22 23 24 25 26 27 28 29 30 31 32 33 34 35 36 37 38 39 40 41 42 43 44 45 46 47 48 49 50
000
ASUS43 KMKX 221600
RWRWI

WISCONSIN REGIONAL WEATHER ROUNDUP
NATIONAL WEATHER SERVICE MILWAUKEE/SULLIVAN WI
1100 AM CDT SUN OCT 22 2017

NOTE: "FAIR" INDICATES FEW OR NO CLOUDS BELOW 12,000 FEET WITH NO
SIGNIFICANT WEATHER AND/OR OBSTRUCTIONS TO VISIBILITY.

WIZ001-002-006>008-014>016-023>028-221700-
NORTHWEST WISCONSIN

CITY           SKY/WX    TMP DP  RH WIND       PRES   REMARKS
SUPERIOR ARPT  CLOUDY    49  42  76 SW8       29.89S
ASHLAND        CLOUDY    51  41  68 SW9       29.91R
HAYWARD        CLOUDY    49  40  71 SW5       29.94R
SIREN          CLOUDY    49  40  70 W9        29.96R
CUMBERLAND     CLOUDY    46  37  71 W8        29.97R
RICE LAKE      CLOUDY    49  41  72 SW3       29.98R
CHETEK         CLOUDY    49  41  73 W5        29.97R
LADYSMITH      CLOUDY    49  44  81 SW5       29.97R
EAU CLAIRE     NOT AVBL
MENOMONIE      CLOUDY    51  42  70 W7        29.99R
NEW RICHMOND   CLOUDY    50  39  67 SW9       29.98S
OSCEOLA        CLOUDY    51  42  71 SW7       30.01R
$$

WIZ003>005-009-010-017-018-221700-
NORTH CENTRAL WISCONSIN

CITY           SKY/WX    TMP DP  RH WIND       PRES   REMARKS
MANITOWISH WTR CLOUDY    47  47 100 W8        29.92R
ARBOR VITAE    DRIZZLE   49  47  93 W6        29.91S
WOODRUFF       DRIZZLE   49  47  93 W6        29.91S
RHINELANDER    LGT RAIN  48  47  96 W8        29.94R
EAGLE RIVER    NOT AVBL
LAND O LAKES   CLOUDY    49  46  90 SW6       29.93R
PHILLIPS       CLOUDY    47  45  95 CALM      29.93R
TOMAHAWK       LGT RAIN  47  44  91 W3        29.94R
MEDFORD        CLOUDY    47  44  88 W8        29.96R
MERRILL        DRIZZLE   49  47  94 W5        29.95R
$$

WIZ029-030-035-036-043>047-221700-
CENTRAL WISCONSIN

CITY           SKY/WX    TMP DP  RH WIND       PRES   REMARKS
WAUSAU         LGT RAIN  49  46  90 W9        29.94R
MOSINEE        NOT AVBL
MARSHFIELD     LGT RAIN  49  44  83 W8        29.97R
STEVENS POINT  LGT RAIN  48  48  98 NW3       29.96R
WAUPACA        CLOUDY    54  51  90 NW6       29.95R
WAUTOMA        LGT RAIN N/A N/A N/A W7        29.98R
WISC RAPIDS    LGT RAIN  51  47  86 NW7       29.99R
CAMP DOUGLAS   LGT RAIN  50  48  93 NW6       29.99R
$$

WIZ011>013-019>022-031-037>040-048>050-221700-
NORTHEAST WISCONSIN

CITY           SKY/WX    TMP DP  RH WIND       PRES   REMARKS
ANTIGO         DRIZZLE   48  47  97 W7        29.94R
SHAWANO        DRIZZLE   53  49  86 NW9G16    29.93R
OCONTO         CLOUDY    56  53  88 NW8G17    29.89R
STURGEON BAY   LGT RAIN  58  55  90 S12       29.90S
GREEN BAY      CLOUDY    54  52  93 W12       29.93R
MANITOWOC      NOT AVBL
APPLETON       CLOUDY    52  52 100 NW14      29.92R
CLINTONVILLE   NOT AVBL
OSHKOSH        LGT RAIN  50  48  93 NW17G26   29.95R FOG
$$

WIZ032>034-041-042-053>061-221700-
SOUTHWEST WISCONSIN

CITY           SKY/WX    TMP DP  RH WIND       PRES   REMARKS
LA CROSSE      CLOUDY    54  46  74 W7        30.01R
SPARTA         LGT RAIN  49  47  90 W5        30.02R
VIROQUA        CLOUDY    49  49  97 NW9       30.00R
BOSCOBEL       LGT RAIN  53  49  86 W5        30.03R
PRAIRIE DU CHI DRIZZLE   53  46  77 NW7       30.02R
PLATTEVILLE    CLOUDY    52  51  95 NW10      30.00R
$$

WIZ056-057-062-063-064-067-068-221700-
SOUTH CENTRAL WISCONSIN

CITY           SKY/WX    TMP DP  RH WIND       PRES   REMARKS
REEDSBURG      RAIN      51  51 100 CALM      29.97R
BARABOO/DELLS  RAIN      50  48  92 NW3       29.98R
LONE ROCK      NOT AVBL
MINERAL POINT  CLOUDY    50  50 100 NW7       29.99R
MADISON        LGT RAIN  52  49  89 NW9       29.96R
MIDDLETON      CLOUDY    54  51  90 N13G18    29.97R
WATERTOWN      LGT RAIN  54  54 100 NW13      29.94R
MONROE         CLOUDY    52  50  93 N12G22    29.95S
JANESVILLE     DRZL/FOG  57  57 100 NW15      29.93R VSB 1
$$

WIZ051-052-058>065-066-070>072-221700-
SOUTHEAST WISCONSIN

CITY           SKY/WX    TMP DP  RH WIND       PRES   REMARKS
MILWAUKEE      LGT RAIN  66  62  87 S8        29.92F
WAUKESHA       LGT RAIN  63  59  88 S12       29.93F FOG
MILWAUKEE/TIMM CLOUDY    64  59  82 S9        29.91S
RACINE         LGT RAIN  61  59  93 S9        29.94S
BURLINGTON     RAIN      62  62 100 S10       29.92S
KENOSHA        LGT RAIN  65  61  87 S16       29.93S FOG
FOND DU LAC    LGT RAIN  54  50  86 NW7       29.96R
SHEBOYGAN      RAIN      60  59  96 S8        29.89F FOG
WEST BEND      RAIN      63  61  94 SW3       29.90S
JUNEAU         RAIN      52  51  97 NW8       29.96R
$$

LSZ147-162-221700-
LAKE SUPERIOR

STATION/POSITION TIME  TEMP    WIND        PRES    WAVE
                       AIR SEA DIR/SP/G            HT/PER
                 (UTC) (F)     (DEG/KT/KT) (MB)    (FT/S)
W MID LAKE BUOY  1450   52 52              1010.2R   5/ 5
DEVILS ISLAND    1500   52     240/ 21/ 25 1011.4R
SAXON HARBOR     1540   52     220/  8/ 14 1012.2R
$$

LMZ867-665-643>646-221700-
LAKE MICHIGAN

STATION/POSITION TIME  TEMP    WIND        PRES    WAVE
                       AIR SEA DIR/SP/G            HT/PER
                 (UTC) (F)     (DEG/KT/KT) (MB)    (FT/S)
S GREEN BAY BUOY 1530   59 58  180/ 12/ 14 1011.5R
N MID LAKE BUOY  1450   61 58  180/ 19/ 21 1013.0R   7/ 6
NORTHPORT PIER   1540   59     160/  9/ 15 1011.9F
KEWAUNEE LAKESHO 1530   55     180/ 15/ 18 1011.7R
SHEBOYGAN LAKESH 1500   55     180/ 19/ 20 1012.4F
PORT WASHINGTON  1540   56     190/  8/ 11 1013.9S
ATWATER BUOY     1409   57 52  160/ 16/ 19 1012.9F
MILWAUKEE LAKESH 1550   57     150/ 14/ 15   N/A
S MID LAKE BUOY  1450   63 61  150/ 19/ 21 1014.2F   4/ 5
KENOSHA   LAKESH 1500   55     170/  9/ 13 1013.5
$$

TC  - TEMPERATURE IN CELSIUS
VSB - VISIBILITY IN STATUTE MILES
WCI - WIND CHILL INDEX
HX  - HEAT INDEX





USA.gov is the U.S. government's official web portal to all federal, state and local government web resources and services.